Location: The Saddle
(36.8333°N, 80.3417°W)
Time: 00:09:36
(UTC-04:00)

JY1SAT - Visible Passes

Search period start: 29 March 2023 00:00
Search period end: 08 April 2023 00:00
Orbit: 557 x 578 km, 97.6° (Epoch: 28 March)

Date Brightness Start Highest point End Pass type
(mag) Time Alt. Az. Time Alt. Az. Time Alt. Az.
30 Mar ? 22:17:00 11° N 22:17:00 11° N 22:17:07 10° N visible
31 Mar ? 22:17:58 11° N 22:17:58 11° N 22:18:12 10° N visible
01 Apr ? 22:18:55 12° N 22:18:55 12° N 22:19:16 10° N visible
02 Apr ? 22:19:51 13° N 22:19:51 13° N 22:20:19 10° N visible
03 Apr ? 22:20:47 13° N 22:20:47 13° N 22:21:21 10° N visible
04 Apr ? 22:21:42 14° N 22:21:42 14° N 22:22:22 10° N visible
05 Apr ? 22:22:36 15° N 22:22:36 15° N 22:23:22 10° N visible
06 Apr ? 22:23:29 16° N 22:23:29 16° N 22:24:22 10° N visible
07 Apr ? 22:24:21 17° N 22:24:21 17° N 22:25:21 10° N visible
